SL-8 R/B

Satellite information

Favourite Embed

Satellite Type and Status

ROCKET BODYIN ORBIT

Key statistics

Satellite SL-8 R/B at a glance.

Uptime

14781

Days in orbit

Revolutions

≈ 14.4

Per day

Orbit

LEO

Low Earth Orbit

Inclination

74.0

Latest

Satellite identification and parameters

Extended collection of information and parameters for SL-8 R/B.

Object identification

Identified? True

Debris? False

Object name: SL-8 R/B

International designator: 1985-006B

Object number (NORAD): 15483

Object ID (CCSDS): 15483

Country: COMMONWEALTH OF INDEPENDENT STATES (CIS)

Current information (Y/N): Y

RCS size: LARGE

Orbital parameters

Period: 100.167 minutes

Inclination: 74.0465 deg

SMA: 7144.556 km

Apoapsis: 779.941 km

Periapsis: 752.902 km

RAAN: 353.3461 deg

Eccentricy: 0.0018923

Argument of periapsis: 326.5993 deg

Mean anomaly: 144.4069 deg

Mean motion: 14.37605937 rev/day

Mean motion (dot): 0.00000194 rev/day2

B* drag term: 0.000073457 1/REarth

Two-line elements (TLE)

Creation date: July 6, 2025, 10:26 p.m.

Reference frame: TEME

Reference center: EARTH

Epoch: July 6, 2025, 9:31 p.m. UTC

TLE line 0: 0 SL-8 R/B

TLE line 1: 1 15483U 85006B 25187.89675596 .00000194 00000-0 73457-4 0 9992

TLE line 2: 2 15483 74.0465 353.3461 0018923 326.5993 144.4069 14.37605937118973

Live tracking on map

Real-time ground track for satellite SL-8 R/B.

In-orbit conjunctions

A list of the most updated potential collisions computed for object SL-8 R/B.

Target Orbit TCA Probability of collision Miss distance Type
FENGYUN 1C DEB SSO 2025-05-14 11:34:43 0.0001033465 508.0 (m) DEBRIS
NOAA 16 DEB SSO 2024-09-28 16:39:49 0.0002180155 60.0 (m) DEBRIS
CZ-6A DEB LEO 2024-09-23 21:52:23 0.0008233399 926.0 (m) DEBRIS
NOAA 16 DEB SSO 2024-09-15 08:34:36 0.0002235929 279.0 (m) DEBRIS
COSMOS 2251 DEB LEO 2024-06-08 11:17:08 0.0001334337 156.0 (m) DEBRIS

Associated space launch

Military communications satellite

SL-8 R/B was lifted into orbit during the mission ‘Kosmos-3M | Strela-2M 36’, on board a Kosmos-3M space rocket.

The launch took place on Jan. 17, 1985, 5:46 p.m. from 132/1 (132L).

For more information about the launch, click the button.

Launch to space Kosmos-3M | Strela-2M 36
Kosmos-3M | Strela-2M 36

Agency: N/A

Status: Launch Successful

Launch date: Jan. 17, 1985, 5:46 p.m. UTC

Rocket: Kosmos-3M

Launch pad: 132/1 (132L)

Location: Plesetsk Cosmodrome, Russian Federation

...

Latest news about this satellite

There are no fresh news available about this satellite. Check back as we update our databases every day.


Newsletter sign-up

Weekly statistics, charts and insights to help you stay on top of the space industry.